Regional Weather Roundup
Issued by NWS Kansas City/Pleasant Hill, MO

Home | Current Version | Previous Version | Text Only | Print | Product List | Glossary On
Versions: 1 2 3 4 5 6 7 8 9 10 11 12 13 14 15 16 17 18 19 20 21 22 23 24 25 26 27 28 29 30 31 32 33 34 35 36 37 38 39 40 41 42 43 44 45 46 47 48 49 50
192
ASUS43 KEAX 231210
RWREAX

WEATHER ROUNDUP FOR EASTERN KANSAS AND NORTHWEST MISSOURI
NATIONAL WEATHER SERVICE KANSAS CITY/PLEASANT HILL MO
700 AM CDT SUN JUL 23 2017

KSZ040-057-103>105-MOZ028-029-037-043-231300-
...KANSAS CITY METROPOLITAN AREA...

CITY           SKY/WX    TMP DP  RH WIND       PRES   REMARKS
K.C. INTL      CLOUDY    71  70  96 NW6       29.92S
6HR MIN TEMP:  71; 6HR MAX TEMP:  74; 6HR PCP: TRACE;

K.C. DOWNTOWN  CLOUDY    73  71  93 SW3       29.91R
6HR MIN TEMP:  72; 6HR MAX TEMP:  74; 6HR PCP:  0.23;

LEES SUMMIT    CLOUDY    70  70 100 W3        29.92R
6HR MIN TEMP:  70; 6HR MAX TEMP:  72; 6HR PCP:  0.05;

OLATHE - IXD   CLOUDY    71  68  90 W6        29.94R
6HR MIN TEMP:  69; 6HR MAX TEMP:  72; 6HR PCP:  0.01;

OLATHE - OJC   CLOUDY    70  70 100 NW5       29.93R
6HR MIN TEMP:  68; 6HR MAX TEMP:  71; 6HR PCP:  0.01;

LAWRENCE       CLOUDY    70  70 100 NW6       29.93R

$$

MOZ001>008-011>017-020>025-030>033-038>040-044>046-053-054-231300-
...NORTHERN AND CENTRAL MISSOURI...

CITY           SKY/WX    TMP DP  RH WIND       PRES   REMARKS
ST. JOSEPH     PTCLDY    72  71  97 CALM      29.92S
6HR MIN TEMP:  71; 6HR MAX TEMP:  77;

MOSBY          PTSUNNY   70  70 100 CALM      29.90F
WHITEMAN AFB   MOCLDY    71  71 100 NW5       29.88R
6HR MIN TEMP:  70; 6HR MAX TEMP:  73; 6HR PCP:  0.19;

CLINTON        CLOUDY    72  72 100 W7        29.93R
SEDALIA        CLOUDY    71  71 100 S10       29.90R
6HR MIN TEMP:  71; 6HR MAX TEMP:  73; 6HR PCP:  0.24;

WARSAW         NOT AVBL
CHILLICOTHE      N/A     71  71 100 CALM      29.91S
6HR MIN TEMP:  70; 6HR MAX TEMP:  77;

KIRKSVILLE     CLOUDY    73  67  81 NW6       29.91R
6HR MIN TEMP:  70; 6HR MAX TEMP:  78;


$$

MOZ041-047>049-056>058-063>065-088>090-097-231300-
...EASTERN AND SOUTHERN MISSOURI...

CITY           SKY/WX    TMP DP  RH WIND       PRES   REMARKS
ST. LOUIS INTL CLOUDY    77  63  61 S7        29.82F
6HR MIN TEMP:  73; 6HR MAX TEMP:  85; 6HR PCP:  0.32;

SPIRIT OF STL  CLOUDY    72  67  84 S5        29.81R
COLUMBIA       MOCLDY    70  67  90 CALM      29.88F
JEFFERSON CITY CLOUDY    72  70  93 NE5       29.86S
ROLLA          MOCLDY    68  66  93 SW7       29.88S
OSAGE BEACH    CLOUDY    72  67  84 S5        29.89F
SPRINGFIELD    CLOUDY    72  67  84 S5        29.94R
BRANSON        CLOUDY    77  70  78 NE5       29.98R
JOPLIN         MOCLDY    75  70  84 SE5       29.95R
WEST PLAINS    CLOUDY    77  65  66 E3        29.94R

$$

IAZ060-094-KSZ022-034>040-054-083-096-NEZ052-066-093-231300-
...KANSAS...SOUTHEAST NEBRASKA AND IOWA...

CITY           SKY/WX    TMP DP  RH WIND       PRES   REMARKS
TOPEKA         CLOUDY    71  71 100 CALM      29.93S
6HR MIN TEMP:  70; 6HR MAX TEMP:  74; 6HR PCP:  0.01;

MANHATTAN      MOCLDY    69  66  90 N3        29.96R
EMPORIA        CLOUDY    70  67  90 S5        29.97R
CHANUTE        RAIN      71  67  87 SW10      29.96R
WICHITA        RAIN      74  70  87 SE6       29.94F
OMAHA          FOG       70  67  90 N5        29.94S VSB<1/4
LINCOLN        CLEAR     68  66  93 CALM      29.97R
FALLS CITY     CLOUDY    73  69  87 SW8       29.93S
LAMONI         CLEAR     73  73 100 NW5       29.92S FOG
DES MOINES     PTCLDY    74  71  91 W6        29.89S

$$





USA.gov is the U.S. government's official web portal to all federal, state and local government web resources and services.